Regional Weather Roundup
Issued by NWS Grand Forks, ND

Home | Current Version | Previous Version | Graphics & Text | Print | Product List | Glossary On
Versions: 1 2 3 4 5 6 7 8 9 10 11 12 13 14 15 16 17 18 19 20 21 22 23 24 25 26 27 28 29 30 31 32 33 34 35 36 37 38 39 40 41 42 43 44 45 46 47 48 49 50
000
ASUS43 KFGF 251310
RWRFGF
PRAIRIE TO PINES  WEATHER ROUNDUP
NATIONAL WEATHER SERVICE EASTERN NORTH DAKOTA/GRAND FORKS ND
800 AM CDT SAT MAR 25 2017

 **SATELLITE DATA USED TO AUGMENT SKY COVER AT AUTOMATED STATIONS**
 *****  WEATHER ACROSS EASTERN NORTH DAKOTA  *****

CITY           SKY/WX    TMP DP  RH WIND       PRES   REMARKS
GRAND FORKS    MOCLDY    32  30  92 SE10      30.16S WCI  24
GRAND FRKS AFB FAIR      29  29  99 S10       30.15S WCI  20
DEVILS LAKE    FAIR      27  26  96 SE12      30.08S WCI  17
FARGO          FAIR      30  28  92 E3        30.17F
WAHPETON ARPT  CLOUDY    32  30  93 SE10      30.19R WCI  24
$$

 ***** WEATHER ACROSS CENTRAL AND WESTERN NORTH DAKOTA  *****

CITY           SKY/WX    TMP DP  RH WIND       PRES   REMARKS
BISMARCK       CLOUDY    31  30  96 SE10      30.04S FOG     WCI  22
MINOT          FAIR      31  29  92 SE10      29.95F WCI  22
JAMESTOWN      CLOUDY    29  28  96 S10       30.10S FOG     WCI  20
MINOT AFB      FAIR      30  29  95 SE14      29.95R WCI  20
GARRISON         N/A     30  29  96 SE10      29.96S WCI  21
WILLISTON      FAIR      42  33  70 S8        29.84S
DICKINSON      FAIR      32  29  88 S15       29.88R WCI  22
HETTINGER      FAIR      33  29  85 SE9       29.94R
$$

 *****  OTHER AIRPORT OBSERVATIONS IN OUR AREA  *****

CITY           SKY/WX    TMP DP  RH WIND       PRES   REMARKS
WALHALLA       NOT AVBL
GRAFTON AIRPOR FAIR      28  30 100 SE10      30.16F WCI  19
VALLEY CITY AR CLOUDY    27  27 100 S8        30.14S FOG     WCI  18
CANDO          NOT AVBL
CAVALIER APRT    N/A     28  28 100 SE8       30.12S WCI  20
GWINNER        CLOUDY    28  28 100 MISG      30.15S
SHEYENNE NWR     N/A     22  21  96 SE2       29.95S
ROLLA          CLOUDY    27  27 100 S15       30.03S FOG     WCI  15
 ***** THE ABOVE OBSERVATIONS ARE NON NWS ARE NOT QUALITY
       CONTROLLED AND MAY MIS-REPORT RAIN FOR SNOW...
$$

  *****  WEATHER ACROSS NORTHERN MINNESOTA  *****

CITY           SKY/WX    TMP DP  RH WIND       PRES   REMARKS
FLAG ISLAND    FAIR      28  25  86 SE6       30.21F WCI  22
WARROAD        FAIR      28  25  86 SE5       30.21F WCI  23
ROSEAU         FAIR      30  27  86 SE9       30.19F WCI  22
HALLOCK        FAIR      32  30  93 SE14      30.15S WCI  22
THF RVR FALLS  FAIR     N/A N/A N/A SE12      30.19S
BAUDETTE       CLOUDY    30  27  88 SE8       30.21F WCI  22
WASKISH        CLOUDY    32  30  93 SE5       30.22F
CROOKSTON      FAIR      32  28  86 SE9       30.19S WCI  24
GREENBUSH NDAW   N/A     30  28  93 SE8         N/A  WCI  23
$$
  *****  WEATHER ACROSS CENTRAL AND WEST MINNESOTA  *****

CITY           SKY/WX    TMP DP  RH WIND       PRES   REMARKS
FOSSTON        CLOUDY    30  28  93 SE3       30.19S
BEMIDJI        CLOUDY    33  30  88 SE9       30.21S
PARK RAPIDS    CLOUDY    34  26  72 SE12G21   30.20R
ELBOW LAKE     CLOUDY    32  30  93 SE10      30.19S WCI  24
WADENA         CLOUDY    32  27  80 E12G20    30.20R WCI  23
DETROIT LAKES  CLOUDY    34  30  86 SE14G20   30.19R WCI  24
MOORHEAD       FAIR      28  27  93 SE3       30.18F
FERGUS FALLS   CLOUDY    34  28  80 SE15      30.22S WCI  24
MORRIS MN      CLOUDY    34  30  86 E9        30.18R
STAPLES        CLOUDY    32  27  80 E7        30.21R
$$
  *****  WEATHER ELSEWHERE ACROSS MINNESOTA  *****

CITY           SKY/WX    TMP DP  RH WIND       PRES   REMARKS
DULUTH         CLOUDY    32  29  88 E14G24    30.25R WCI  22
INTRNTL FALLS  CLOUDY    33  29  85 SE6       30.25S
ELY            CLOUDY    30  27  86 E7        30.28R WCI  23
CLOQUET        CLOUDY    32  28  86 E12       30.24S WCI  23
WHEATON        CLOUDY    34  30  86 E13       30.20S WCI  25
BRAINERD       CLOUDY    33  28  81 E7        30.22S
HIBBING        CLOUDY    31  26  82 E8        30.26R WCI  23
ALEXANDRIA     CLOUDY    32  29  88 E12       30.19R WCI  23
SAINT CLOUD    CLOUDY    34  30  85 NE8       30.19S
MINNEAPOLIS    CLOUDY    37  30  75 NE13      30.17S
$$

  *****  WEATHER ACROSS SOUTH DAKOTA  *****

CITY           SKY/WX    TMP DP  RH WIND       PRES   REMARKS
SIOUX FALLS    CLOUDY    35  34  96 NE10      30.12R FOG
BROOKINGS      CLOUDY    32  30  92 E12       30.12S FOG     WCI  23
WATERTOWN      CLOUDY    31  29  92 E7        30.12S WCI  24
HURON          CLOUDY    33  31  92 E9        30.13S
SISSETON         N/A     32  31  96 SE6       30.16R
ABERDEEN       CLOUDY    32  28  85 SE8       30.14R WCI  25
MITCHELL       CLOUDY    34  31  88 E7        30.15R
PIERRE         FOG       31  30  96 SE16      30.06F VSB 1/4 WCI  20
MOBRIDGE       FOG       32  29  88 SE16      30.03F VSB 3/4 WCI  21
RAPID CITY     FAIR      35  28  75 SE12      29.95R
$$

  *****  SOME WEATHER IN NEARBY STATES *****

CITY           SKY/WX    TMP DP  RH WIND       PRES   REMARKS
GLASGOW MT     FAIR      40  30  67 W9        29.85R
GREAT FALLS MT FAIR      41  24  51 SW20      29.92R
CHEYENNE WY    FAIR      32  26  78 SW9       30.03S WCI  24
SCOTTSBLUFF NE FAIR      31  27  85 E10       30.02S WCI  22
OMAHA NE       LGT RAIN  40  36  86 N17       29.98R
DES MOINES IA  LGT RAIN  41  39  93 N16G23    29.94S FOG
DAVENPORT IA   LGT RAIN  41  39  93 NE22      29.93S FOG
CHICAGO IL     DRIZZLE   42  39  89 NE14      30.05S
EAU CLAIRE WI  CLOUDY    36  30  79 E16G24    30.17S
LA CROSSE WI   CLOUDY    38  33  82 NE9       30.13R
$$

  *****  SOME NATIONAL WEATHER *****

CITY           SKY/WX    TMP DP  RH WIND       PRES   REMARKS
LA GUARDIA NY  PTSUNNY   52  38  58 CALM      30.16R
RALEIGH NC     PTSUNNY   59  52  77 SW8       30.35R
ATLANTA GA     CLOUDY    58  52  80 SE7       30.29S
NEW ORLEANS LA FAIR      71  68  90 SE14      30.07R
OKLAHOMA CITY  CLOUDY    47  42  83 NW17      29.94R
ALBUQUERQUE NM FAIR      42  21  43 N6        30.16S
SALT LAKE CITY CLOUDY    48  40  73 N12       30.01R
LOS ANGELES CA FAIR      56  51  84 N3        30.11S
BOISE ID       FAIR      37  35  92 S3        30.09R
SEATTLE WA     FAIR      43  40  89 S16       30.06R
$$

*** WEATHER ACROSS MANITOBA...SASKATCHEWAN AND ONTARIO ***
                ***ONTARIO***

CITY           SKY/WX    TMP DP  RH WIND       PRES   REMARKS
GERALDTON      SUNNY      3  -6  66 E7        30.43S WCI  -9
THUNDER BAY    MOSUNNY   25  14  63 E15       30.41R WCI  12
SIOUX LOOKOUT  MOCLDY    23   7  50 SE6       30.30S WCI  16
TORONTO        LGT RAIN  36  34  93 NE7       30.26R
BIG TROUT LK   CLEAR      0  -9  65 SE5       30.42S WCI -10
PICKLE LAKE    PTCLDY    10  -6  48 SE10      30.36F WCI  -3
DRYDEN         CLOUDY    28  21  74 SE8       30.27R WCI  20
KENORA         MOCLDY    28  23  80 SE8       30.22S WCI  20
$$
                *** MANITOBA***

CITY           SKY/WX    TMP DP  RH WIND       PRES   REMARKS
BRANDON        CLOUDY    28  27  93 SE10      30.01F WCI  19
DAUPHIN        CLEAR     28  27  93 SE10      29.96F WCI  19
ISLAND LAKE    NOT AVBL
PILOT MOUND      N/A     27  25  93 S15         N/A  WCI  15
THE PAS        LGT SNOW  25  19  80 SE15G22   29.90F WCI  12
THOMPSON       CLOUDY     9  -4  56 E5        30.14F WCI   0
WINNIPEG       CLOUDY    30  27  86 SE12      30.13S WCI  21
LYNN LAKE      CLOUDY    12   1  62 E8        30.03F WCI   1
CHURCHILL      PTCLDY   -13 -20  70 S9        30.33F WCI -31
GILLAM         MOCLDY     3  -8  60 SE6       30.27F WCI  -8
$$
                ***SASKATCHEWAN***

CITY           SKY/WX    TMP DP  RH WIND       PRES   REMARKS
ESTEVAN        CLOUDY    36  32  87 SE13      29.83F
KINDERSLEY     PTCLDY    34  30  86 W21       29.60R WCI  22
LLOYDMINSTER   CLOUDY    32  32 100 NW8       29.65R FOG     WCI  25
PRINCE ALBERT  FRZ RAIN  32  30  93 E13       29.65F FOG     WCI  22
REGINA         CLOUDY    36  32  87 S10       29.73R
YORKTON        CLOUDY    30  28  93 SE23G30   29.79F WCI  17
N. BATTLEFORD  CLOUDY    34 N/A N/A E8        29.61S HAZE
LA RONGE       LGT SNOW  21  19  93 NE13      29.80F DRFTSNOWWCI   9
SASKATOON      PTCLDY    34  32  93 SE8       29.60F
SWIFT CURRENT  CLEAR     39  30  70 SW18G25   29.69S
$$
NOTE: THESE ARE AUTOMATED STATIONS WITH LIMITED QUALITY CONTROL
      "FAIR" INDICATES FEW OR NO CLOUDS BELOW 12,000 FEET WITH NO
      SIGNIFICANT WEATHER AND/OR OBSTRUCTIONS TO VISIBILITY.
      SKY/WX - SKY CONDITION AND SIGNIFICANT WEATHER.
      TMP - AIR TEMPERATURE.    DP   - DEWPOINT TEMPERATURE.
      RH  - RELATIVE HUMIDITY.  PRES - PRESSURE.
      HX  - HEAT INDEX.         WCI  - WIND CHILL INDEX.
$




USA.gov is the U.S. government's official web portal to all federal, state and local government web resources and services.